Wolf Point, MT

5:00 PM MST on January 16, 2018 (GMT -0700)
Clayton

Weather History for KOLF - February, 2013

Change the Weather History Date:

Friday, February 1, 2013

  Actual Average Record
Temperature  
Mean Temperature 16 °F -  
Max Temperature 29 °F 26 °F 45 °F (2006)
Min Temperature 2 °F 1 °F -37 °F (2011)
Degree Days  
Heating Degree Days 49    
Cooling Degree Days 0    
Moisture  
Dew Point 19 °F    
Average Humidity 88    
Maximum Humidity 100    
Minimum Humidity 73    
Precipitation  
Precipitation 0.08 in 0.01 in 0.08 in (2013)
Month to date precipitation 0.08 0.01  
Year to date precipitation 0.19 0.32  
Sea Level Pressure  
Sea Level Pressure 30.03 in    
Wind  
Wind Speed 7 mph (WSW)    
Max Wind Speed 18 mph    
Max Gust Speed -    
Visibility 4 miles    
Events Fog , Snow    
T = Trace of Precipitation, MM = Missing Value Source: NWS Daily Summary

Daily Weather History Graph

Daily Weather History Graph

Search for Another Location

Airport or City:

Trip Planner

Search our weather history database for the weather conditions in past years. The results will help you decide how hot, cold, wet, or windy it might be!

Date:

Astronomy

Feb. 01, 2013 Rise Set
Actual Time 7:29 AM MST 5:02 PM MST
Civil Twilight 6:56 AM MST 5:36 PM MST
Nautical Twilight 6:19 AM MST 6:13 PM MST
Astronomical Twilight 5:42 AM MST 6:49 PM MST
Moon 11:46 PM MST (2/1) 9:33 AM MST (2/1)
Length of Visible Light 10h 39m
Length of Day
9h 33m
Waning Gibbous, 69% of the Moon is Illuminated
Feb 1
Waning Gibbous
Feb 3
Last Quarter
Feb 10
New
Feb 17
First Quarter
Feb 25
Full

Hourly Weather History & Observations

Time (MST) Temp. Windchill Dew Point Humidity Pressure Visibility Wind Dir Wind Speed Gust Speed Precip Events Conditions
12:53 AM 3.9 °F - -2.0 °F 76% 30.13 in 10.0 mi Calm Calm - N/A   Overcast
1:53 AM 3.9 °F -3.4 °F -0.9 °F 80% 30.11 in 10.0 mi SE 3.5 mph - N/A   Overcast
2:53 AM 5.0 °F - -0.0 °F 80% 30.09 in 10.0 mi Calm Calm - N/A   Overcast
3:53 AM 6.1 °F - -0.0 °F 76% 30.08 in 10.0 mi Calm Calm - N/A   Mostly Cloudy
4:53 AM 1.9 °F -7.6 °F -2.0 °F 83% 30.07 in 10.0 mi SSW 4.6 mph - N/A   Partly Cloudy
5:53 AM 8.1 °F -6.2 °F 3.0 °F 80% 30.06 in 10.0 mi WSW 10.4 mph - N/A   Partly Cloudy
6:21 AM 10.4 °F -5.4 °F 5.0 °F 79% 29.91 in 10.0 mi WSW 13.8 mph - N/A   Overcast
6:53 AM 12.0 °F -2.7 °F 6.1 °F 77% 30.06 in 10.0 mi WSW 12.7 mph - N/A   Overcast
7:10 AM 12.2 °F -2.5 °F 6.8 °F 79% 29.91 in 10.0 mi WSW 12.7 mph - N/A   Overcast
7:18 AM 10.4 °F -7.2 °F 6.8 °F 85% 29.91 in 10.0 mi WSW 17.3 mph - N/A   Overcast
7:36 AM 10.4 °F -4.1 °F 5.0 °F 79% 29.93 in 10.0 mi WSW 11.5 mph - N/A   Scattered Clouds
7:53 AM 10.0 °F -2.9 °F 5.0 °F 80% 30.07 in 10.0 mi SSW 9.2 mph - N/A   Partly Cloudy
8:53 AM 12.9 °F 0.7 °F 7.0 °F 77% 30.09 in 10.0 mi WSW 9.2 mph - N/A   Overcast
9:01 AM 12.2 °F -0.2 °F 6.8 °F 79% 29.94 in 10.0 mi WSW 9.2 mph - N/A   Overcast
9:53 AM 15.1 °F 0.5 °F 9.0 °F 77% 30.07 in 10.0 mi WSW 13.8 mph - N/A   Overcast
10:40 AM 17.6 °F 4.3 °F 10.4 °F 73% 29.95 in 10.0 mi WSW 12.7 mph - N/A   Overcast
10:53 AM 18.0 °F 4.8 °F 12.9 °F 81% 30.09 in 10.0 mi WSW 12.7 mph - N/A   Overcast
11:39 AM 21.2 °F 6.4 °F 19.4 °F 93% 29.96 in 5.0 mi WSW 18.4 mph - N/A   Overcast
11:53 AM 21.0 °F 7.6 °F 19.0 °F 92% 30.09 in 7.0 mi West 15.0 mph - N/A   Overcast
12:53 PM 23.0 °F 11.1 °F 19.4 °F 86% 29.97 in 6.0 mi WSW 12.7 mph - N/A   Overcast
1:02 PM 23.0 °F 12.4 °F 21.2 °F 93% 29.97 in 1.8 mi WSW 10.4 mph - 0.00 in Snow Light Snow
1:07 PM 24.8 °F 14.0 °F 21.2 °F 86% 29.97 in 0.8 mi WSW 11.5 mph - 0.00 in Snow Light Snow
1:20 PM 24.8 °F 14.0 °F 21.2 °F 86% 29.97 in 1.2 mi SW 11.5 mph - 0.00 in Snow Light Snow
1:32 PM 24.8 °F 15.3 °F 21.2 °F 86% 29.97 in 0.8 mi WSW 9.2 mph - 0.00 in Snow Light Snow
1:38 PM 24.8 °F 15.3 °F 21.2 °F 86% 29.97 in 1.0 mi WSW 9.2 mph - 0.00 in Snow Light Snow
1:43 PM 24.8 °F 16.1 °F 21.2 °F 86% 29.97 in 2.0 mi WSW 8.1 mph - 0.00 in Snow Light Snow
1:47 PM 24.8 °F 16.1 °F 21.2 °F 86% 29.97 in 1.8 mi WSW 8.1 mph - 0.00 in Snow Light Snow
1:53 PM 25.0 °F 16.3 °F 21.9 °F 88% 30.09 in 1.5 mi WSW 8.1 mph - 0.00 in Snow Light Snow
2:38 PM 26.6 °F 19.1 °F 23.0 °F 86% 29.98 in 1.8 mi WSW 6.9 mph - 0.00 in Snow Light Snow
2:45 PM 26.6 °F 19.1 °F 23.0 °F 86% 29.98 in 2.5 mi WSW 6.9 mph - 0.00 in Snow Light Snow
2:53 PM 26.1 °F 17.6 °F 23.0 °F 88% 30.09 in 1.8 mi WSW 8.1 mph - 0.00 in Snow Light Snow
3:02 PM 26.6 °F 18.2 °F 23.0 °F 86% 29.98 in 2.0 mi WSW 8.1 mph - 0.00 in Snow Light Snow
3:16 PM 26.6 °F 20.0 °F 23.0 °F 86% 29.98 in 4.0 mi WSW 5.8 mph - 0.00 in Snow Light Snow
3:25 PM 26.6 °F 20.0 °F 23.0 °F 86% 29.98 in 1.8 mi WSW 5.8 mph - 0.00 in Snow Light Snow
3:36 PM 26.6 °F 19.1 °F 24.8 °F 93% 29.98 in 1.0 mi WSW 6.9 mph - 0.00 in Snow Light Snow
3:44 PM 26.6 °F 18.2 °F 24.8 °F 93% 29.98 in 0.5 mi WSW 8.1 mph - 0.00 in Fog , Snow Snow
3:53 PM 27.0 °F 19.5 °F 24.1 °F 89% 30.10 in 0.8 mi WSW 6.9 mph - 0.00 in Snow Light Snow
4:04 PM 26.6 °F 19.1 °F 24.8 °F 93% 29.99 in 1.0 mi WSW 6.9 mph - 0.00 in Snow Light Snow
4:16 PM 26.6 °F 19.1 °F 24.8 °F 93% 29.99 in 1.8 mi WSW 6.9 mph - 0.00 in Snow Light Snow
4:36 PM 26.6 °F 18.2 °F 24.8 °F 93% 30.00 in 0.8 mi WSW 8.1 mph - 0.00 in Snow Light Snow
4:51 PM 26.6 °F 18.2 °F 24.8 °F 93% 30.00 in 1.0 mi WSW 8.1 mph - 0.00 in Snow Light Snow
4:53 PM 27.0 °F 18.0 °F 25.0 °F 92% 30.12 in 1.0 mi WSW 9.2 mph - 0.00 in Snow Light Snow
5:04 PM 26.6 °F 17.5 °F 24.8 °F 93% 30.00 in 1.5 mi WSW 9.2 mph - 0.00 in Snow Light Snow
5:18 PM 26.6 °F 17.5 °F 24.8 °F 93% 30.00 in 2.5 mi WSW 9.2 mph - 0.00 in Snow Light Snow
5:27 PM 26.6 °F 18.2 °F 24.8 °F 93% 30.01 in 3.0 mi WSW 8.1 mph - 0.00 in Snow Light Snow
5:53 PM 27.0 °F 20.5 °F 25.0 °F 92% 30.12 in 9.0 mi WSW 5.8 mph - 0.00 in   Overcast
6:53 PM 27.0 °F 19.5 °F 24.1 °F 89% 30.13 in 9.0 mi WSW 6.9 mph - N/A   Overcast
7:14 PM 26.6 °F 19.1 °F 24.8 °F 93% 30.02 in 2.5 mi WSW 6.9 mph - 0.00 in Snow Light Snow
7:27 PM 26.6 °F 19.1 °F 24.8 °F 93% 30.03 in 1.2 mi WSW 6.9 mph - 0.00 in Snow Light Snow
7:34 PM 26.6 °F 18.2 °F 24.8 °F 93% 30.03 in 1.5 mi West 8.1 mph - 0.00 in Snow Light Snow
7:38 PM 28.4 °F 20.4 °F 24.8 °F 86% 30.03 in 3.0 mi West 8.1 mph - 0.00 in Snow Light Snow
7:50 PM 26.6 °F 20.0 °F 26.6 °F 100% 30.03 in 1.8 mi West 5.8 mph - 0.01 in Snow Light Snow
7:51 PM 27.0 °F 20.5 °F 26.1 °F 96% 30.14 in 1.8 mi West 5.8 mph - 0.01 in Snow Light Snow
8:01 PM 28.4 °F 22.2 °F 26.6 °F 93% 30.03 in 1.0 mi West 5.8 mph - 0.00 in Snow Light Snow
8:08 PM 28.4 °F 23.3 °F 26.6 °F 93% 30.03 in 0.8 mi West 4.6 mph - 0.00 in Snow Light Snow
8:34 PM 28.4 °F 24.6 °F 26.6 °F 93% 30.03 in 1.2 mi West 3.5 mph - 0.02 in Snow Light Snow
8:41 PM 28.4 °F 24.6 °F 26.6 °F 93% 30.03 in 1.0 mi West 3.5 mph - 0.02 in Snow Light Snow
8:49 PM 28.4 °F - 26.6 °F 93% 30.03 in 0.8 mi Calm Calm - 0.03 in Snow Light Snow
8:53 PM 28.9 °F - 27.0 °F 92% 30.13 in 0.8 mi Calm Calm - 0.03 in Snow Light Snow
8:59 PM 28.4 °F - 26.6 °F 93% 30.03 in 1.0 mi Calm Calm - 0.00 in Snow Light Snow
9:05 PM 28.4 °F - 26.6 °F 93% 30.03 in 0.8 mi Calm Calm - 0.01 in Snow Light Snow
9:15 PM 28.4 °F - 26.6 °F 93% 30.03 in 0.8 mi Calm Calm - 0.02 in Snow Light Snow
9:43 PM 26.6 °F 21.2 °F 24.8 °F 93% 30.03 in 1.0 mi ESE 4.6 mph - 0.04 in Snow Light Snow
9:53 PM 26.1 °F 18.4 °F 24.1 °F 92% 30.14 in 1.5 mi East 6.9 mph - 0.04 in Snow Light Snow
9:58 PM 26.6 °F 18.2 °F 24.8 °F 93% 30.03 in 3.0 mi East 8.1 mph - 0.00 in Snow Light Snow
10:53 PM 25.0 °F 18.1 °F 23.0 °F 92% 30.14 in 5.0 mi ENE 5.8 mph - 0.00 in   Overcast
11:53 PM 25.0 °F 20.7 °F 21.9 °F 88% 30.15 in 7.0 mi ENE 3.5 mph - N/A   Overcast